TITAN 3C TRANSTAGE DEB, 3494

Orbit data source: Space-Track

TITAN 3C TRANSTAGE DEB, 3494 is space debris in LEO originally from a launch on Fri, 15 Oct 1965 UTC launched from the Air Force Eastern Test Range (AFETR). Debris objects in space refer to the collection of defunct objects orbiting the Earth. Examples of debris include non-operational satellites, rocket bodies, and fragments generated from explosions, collisions, or faulty payload assembly.

Loading next visibility...
Identifier
3494, 1965-082QQ
Orbit
LEO
Country
Flag of USUS
Related business
Manufacturer
Unknown
Mission
Spacecraft
Bus & Motor
Unknown
Mass
Unknown
Launch date (UTC)
1965-10-15 (60 years ago)
Launch vehicle
Unknown
Launch site
Air Force Eastern Test Range (AFETR)
Object type
Payload
Rocket body
Debris
Shape & HBR
Unknown
Radar Cross Section
Small (<0.1 m²)

Expand to show TLE details & history
Last TLE update: 1 day ago

TLE from 1 day ago
0 TITAN 3C TRANSTAGE DEB
1 03494U 65082QQ  25260.48537299  .00000612  00000-0  11189-3 0  9995
2 03494  31.8916 306.6684 0027195 165.2095 194.9345 14.61593731165518
Epoch: 2025-09-17T11:38Z
TLE epoch observation values (Epoch: 2025-09-17T11:38:56.226Z)
Latitude
-0.00003°
Longitude
135.27343°
Altitude
705.226 km
Speed
7.496 km/s
True Right ascension
20h 26m 40s
True Declination
0° 00' 00"
Sunlit
Object was in full shadow at epoch
Visualization orbit readout
Latitude
Unknown
Longitude
Unknown
Altitude
Unknown
Speed
Unknown
Apparent Right ascension
Unknown
Apparent Declination
Unknown
Sunlit
N/A
Visualization observer readout
Local Sidereal Time
12:52:26
Azimuth
Unknown
Elevation
Unknown
Doppler factor
Unknown
Orbital elements
Apogee altitude
710.888 km
Perigee altitude
672.435 km
Semi-major axis
7,069.799 km
Eccentricity
0.00272
Inclination
31.8916°
RAAN
306.6684°
Arg. of periapsis
165.2095°
True anomaly
194.85445°
Mean anomaly
194.9345°
Eccentric anomaly
194.89445°
Mean motion
3.65117 °/min
Orbital period
98.6 mins
BSTAR
0.00011189
Loading maneuver chart data...
Computing Atmospheric mass density...

Documentation

Showing up to 5 results
|